[[{"header":{"parameterUnit":"m.s-1","parameterCategory":1,"la1":30.2991,"la2":30.254,"lo1":-89.0895,"lo2":-89.0444,"dy":0.0017,"dx":0.0017,"nx":28,"ny":28,"refTime":"2024-09-30T03:00:00:Z","depth":0,"parameterNumber":2,"parameterNumberName":"U-component_of_WINDS"},"data":[0,0,0,0,0,0,0,0,0,0,0,0,0,0,0,0,0,0,0,0,0,0,0,0,0,0,0,0,0,0,0,0,0,0,0,0,0,0,0,0,0,0,0,0,0,0,0,0,0,0,0,0,0,0,0,0,0,0,1.5434,1.5435,0,1.5503,1.5504,1.5505,1.5539,1.5539,1.5539,1.5539,1.5608,1.5609,1.5611,0,0,0,0,0,0,0,0,0,0,0,0,0,1.533,1.5332,1.5434,1.5435,1.5436,1.5503,1.5504,1.5505,1.5539,1.5539,1.5539,1.5539,1.5607,1.5609,1.5611,0,0,0,0,0,0,0,0,0,0,0,0,0,1.5385,1.5333,1.5434,1.5461,1.5464,1.5503,1.5504,1.5505,1.5539,1.5539,1.5539,1.5539,1.5606,1.5609,1.5612,1.5628,0,0,1.562,1.5621,0,0,0,0,0,0,0,0,1.5382,1.5389,1.5456,1.5459,1.5463,1.5512,1.5492,1.5546,1.5539,1.5511,1.5539,1.5539,1.5576,1.5581,1.5594,1.5631,1.5634,1.562,1.5622,1.5623,1.5624,0,0,0,0,0,0,0,1.5378,1.5386,1.5461,1.5457,1.5461,1.5469,1.5477,1.5503,1.5542,1.5513,1.5516,1.5523,1.5578,1.5591,1.5596,1.5635,1.562,1.5623,1.5624,1.5625,1.5688,1.5688,0,0,0,0,0,0,1.537,1.5382,1.5459,1.5464,1.5422,1.5471,1.548,1.5496,1.5542,1.5549,1.5523,1.5525,1.5586,1.5592,1.5598,1.562,1.5623,1.5626,1.5627,1.5688,1.5688,1.5688,0,0,0,0,0,0,1.5368,1.5377,1.5457,1.5424,1.5435,1.5473,1.5491,1.5498,1.5511,1.555,1.5557,1.553,1.5587,1.5594,1.562,1.5623,1.5627,1.5629,1.5688,1.5688,1.5688,1.5663,0,0,0,0,0,0,1.5365,1.5375,1.5383,1.5424,1.5436,1.5478,1.5492,1.5499,1.5516,1.5519,1.5558,1.5564,1.5587,1.5616,1.5623,1.5627,1.5631,1.5688,1.5688,1.5688,1.5664,1.5663,1.5661,0,0,0,0,0,1.5361,1.5373,1.5383,1.5392,1.5446,1.5478,1.5485,1.5512,1.5516,1.5524,1.5548,1.5563,1.5621,1.5618,1.5626,1.5631,1.5688,1.5688,1.5688,1.5665,1.5663,1.5661,0,0,0,0,0,0,1.5331,1.5379,1.5391,1.5417,1.5443,1.5484,1.5494,1.5509,1.5534,1.5536,1.5567,1.5575,1.5598,1.5617,1.5613,1.5649,1.5656,1.5658,1.5636,1.5634,1.5633,1.5628,1.5634,0,0,0,0,0,1.5328,1.535,1.539,1.5409,1.5422,1.5455,1.547,1.5489,1.5517,1.5528,1.5555,1.5581,1.5605,1.5621,1.5645,1.5667,1.5675,1.5674,1.5672,1.5671,1.5672,1.5684,1.5684,1.5688,1.5688,1.5688,0,0,1.5321,1.535,1.5362,1.5404,1.5427,1.5449,1.5465,1.5488,1.5504,1.5532,1.5558,1.5578,1.5609,1.5633,1.5645,1.5649,1.5673,1.5671,1.567,1.5672,1.5684,1.5684,1.5683,1.5689,1.5688,1.5688,0,0,1.5319,1.5344,1.5362,1.5384,1.5418,1.544,1.5444,1.5483,1.5497,1.5524,1.5545,1.5564,1.5605,1.5627,1.5643,1.5648,1.5663,1.5655,1.5648,1.5659,1.5659,1.5659,1.566,1.566,1.5656,1.5656,1.5656,0,1.5306,1.5341,1.5369,1.5391,1.5408,1.5434,1.5452,1.5472,1.5512,1.5524,1.5528,1.558,1.5603,1.5632,1.5633,1.5645,1.565,1.5651,1.5657,1.5657,1.5657,1.5658,1.5659,1.5655,1.5655,1.5655,1.5655,0,1.5323,1.5346,1.5357,1.5395,1.5414,1.5433,1.5464,1.5479,1.5495,1.5516,1.5542,1.5571,1.5601,1.5609,1.5625,1.5639,1.5641,1.5651,1.5659,1.5655,1.5657,1.5658,1.5653,1.5654,1.5654,1.5654,0,0,1.5306,1.5359,1.5362,1.5379,1.5418,1.5437,1.5457,1.5487,1.5499,1.5525,1.5542,1.5576,1.5585,1.5603,1.5622,1.5631,1.5633,1.564,1.5641,1.5637,1.565,1.5642,1.5643,1.5643,1.5643,1.5643,1.5647,0,1.531,1.5348,1.5374,1.5401,1.5423,1.5447,1.5465,1.549,1.551,1.553,1.5552,1.5575,1.5585,1.5596,1.5607,1.563,1.5636,1.563,1.5658,1.5659,1.565,1.5644,1.5636,1.5639,1.5648,1.5648,1.5648,0,1.532,1.5346,1.5376,1.5412,1.5422,1.5437,1.5466,1.5485,1.5514,1.5527,1.5547,1.5566,1.5587,1.5593,1.5622,1.5617,1.563,1.5643,1.5644,1.5647,1.5653,1.5647,1.564,1.564,1.565,1.565,1.565,0,1.5304,1.5346,1.537,1.5384,1.5426,1.5436,1.5454,1.5482,1.5498,1.5523,1.5534,1.556,1.5575,1.5595,1.5619,1.5621,1.5646,1.5654,1.5657,1.5656,1.5661,1.5661,1.5656,1.5669,1.5669,1.5669,1.5669,0,1.5306,1.5324,1.5363,1.5377,1.5397,1.5425,1.5444,1.5463,1.5488,1.5506,1.5528,1.5545,1.5576,1.5596,1.5615,1.5636,1.5642,1.5653,1.5658,1.5651,1.565,1.566,1.5661,1.5669,1.5669,1.5669,1.5669,0,1.5293,1.532,1.5346,1.5384,1.5394,1.5406,1.5438,1.5452,1.5473,1.5495,1.5502,1.5534,1.5558,1.5584,1.5617,1.563,1.565,1.5657,1.564,1.5643,1.5644,1.5644,1.5647,1.5648,1.566,1.566,1.566,0,1.5292,1.5306,1.5345,1.5358,1.5376,1.5398,1.5414,1.5442,1.5457,1.549,1.55,1.5526,1.5548,1.5585,1.5611,1.5636,1.5644,1.5643,1.5648,1.564,1.5643,1.5642,1.5643,1.5642,1.5641,1.5641,1.5641,0,1.5288,1.5301,1.5324,1.5351,1.537,1.5392,1.5416,1.5426,1.5458,1.5474,1.5499,1.5516,1.555,1.5575,1.5603,1.562,1.5636,1.5639,1.5641,1.5634,1.5624,1.5629,1.5636,1.5639,1.5639,1.5639,1.5639,1.564,1.5281,1.5294,1.5323,1.5348,1.5368,1.5389,1.5404,1.5426,1.5448,1.5478,1.5492,1.5517,1.5544,1.5583,1.56,1.5619,1.5624,1.5627,1.5628,1.5628,1.5626,1.5621,1.5624,1.5624,1.5624,1.5624,1.5624,0,1.5279,1.5298,1.532,1.5352,1.5371,1.5384,1.541,1.5425,1.5447,1.547,1.5492,1.552,1.5544,1.5571,1.5596,1.5606,1.5614,1.5612,1.5612,1.5615,1.562,1.5616,1.5605,1.5605,1.5605,1.5605,1.5605,1.5605,1.528,1.5302,1.5318,1.535,1.5369,1.5394,1.5408,1.5427,1.5446,1.5477,1.5497,1.5514,1.5539,1.5566,1.5589,1.5596,1.5604,1.56,1.5609,1.5613,1.5615,1.5616,1.5612,1.5602,1.5602,1.5603,1.5603,1.5603]},{"header":{"parameterUnit":"m.s-1","parameterCategory":1,"la1":30.2991,"la2":30.254,"lo1":-89.0895,"lo2":-89.0444,"dy":0.0017,"dx":0.0017,"nx":28,"ny":28,"refTime":"2024-09-30T03:00:00:Z","depth":0,"parameterNumber":3,"parameterNumberName":"V-component_of_WINDS"},"data":[0,0,0,0,0,0,0,0,0,0,0,0,0,0,0,0,0,0,0,0,0,0,0,0,0,0,0,0,0,0,0,0,0,0,0,0,0,0,0,0,0,0,0,0,0,0,0,0,0,0,0,0,0,0,0,0,0,0,-0.1001,-0.1002,0,-0.1048,-0.1048,-0.1049,-0.1067,-0.1067,-0.1067,-0.1067,-0.1115,-0.1116,-0.1118,0,0,0,0,0,0,0,0,0,0,0,0,0,-0.0929,-0.093,-0.1001,-0.1002,-0.1003,-0.1048,-0.1048,-0.1049,-0.1067,-0.1067,-0.1067,-0.1067,-0.1114,-0.1116,-0.1118,0,0,0,0,0,0,0,0,0,0,0,0,0,-0.0966,-0.093,-0.1001,-0.1017,-0.1019,-0.1048,-0.1048,-0.1049,-0.1067,-0.1067,-0.1067,-0.1067,-0.1114,-0.1116,-0.1118,-0.1134,0,0,-0.1124,-0.1125,0,0,0,0,0,0,0,0,-0.0964,-0.0969,-0.1014,-0.1016,-0.1018,-0.1052,-0.104,-0.1078,-0.1067,-0.1049,-0.1067,-0.1067,-0.1094,-0.1098,-0.1107,-0.1137,-0.1139,-0.1125,-0.1126,-0.1127,-0.1127,0,0,0,0,0,0,0,-0.0961,-0.0967,-0.102,-0.1015,-0.1017,-0.1022,-0.1027,-0.1048,-0.1072,-0.1051,-0.1052,-0.1057,-0.1095,-0.1105,-0.1108,-0.114,-0.1125,-0.1126,-0.1128,-0.1128,-0.1185,-0.1185,0,0,0,0,0,0,-0.0956,-0.0965,-0.1018,-0.1021,-0.099,-0.1023,-0.1029,-0.1041,-0.1072,-0.1076,-0.1057,-0.1058,-0.1101,-0.1106,-0.111,-0.1131,-0.1127,-0.1129,-0.113,-0.1184,-0.1185,-0.1185,0,0,0,0,0,0,-0.0954,-0.0961,-0.1016,-0.0993,-0.1001,-0.1025,-0.1038,-0.1042,-0.1052,-0.1077,-0.1081,-0.1063,-0.1101,-0.1107,-0.1128,-0.1133,-0.113,-0.1132,-0.1184,-0.1184,-0.1185,-0.1173,0,0,0,0,0,0,-0.0952,-0.096,-0.0967,-0.0993,-0.1002,-0.1034,-0.1038,-0.1043,-0.1055,-0.1057,-0.1083,-0.1087,-0.1102,-0.1125,-0.113,-0.1136,-0.1133,-0.1184,-0.1184,-0.1185,-0.1173,-0.1173,-0.1173,0,0,0,0,0,-0.095,-0.0962,-0.0967,-0.0973,-0.1011,-0.1034,-0.1039,-0.1055,-0.1056,-0.1062,-0.1078,-0.1087,-0.1131,-0.1127,-0.1133,-0.1139,-0.1183,-0.1184,-0.1185,-0.1174,-0.1173,-0.1173,0,0,0,0,0,0,-0.0936,-0.0966,-0.0972,-0.0993,-0.1011,-0.1037,-0.1047,-0.1055,-0.1073,-0.1073,-0.1092,-0.1098,-0.1118,-0.1131,-0.1125,-0.1156,-0.1158,-0.116,-0.1148,-0.1148,-0.1147,-0.1144,-0.1135,0,0,0,0,0,-0.0935,-0.0951,-0.0977,-0.0993,-0.1002,-0.1022,-0.1033,-0.1044,-0.1063,-0.1071,-0.1089,-0.1107,-0.1125,-0.1137,-0.1155,-0.1175,-0.1181,-0.1182,-0.1182,-0.1182,-0.1183,-0.1195,-0.1195,-0.1187,-0.1187,-0.1187,0,0,-0.0934,-0.0952,-0.0962,-0.0991,-0.1006,-0.1023,-0.1029,-0.1046,-0.1059,-0.1074,-0.1095,-0.1108,-0.113,-0.115,-0.116,-0.1162,-0.1187,-0.1183,-0.1182,-0.1184,-0.1195,-0.1196,-0.1197,-0.1187,-0.1187,-0.1187,0,0,-0.0941,-0.0956,-0.0971,-0.0986,-0.1009,-0.1022,-0.1026,-0.1051,-0.106,-0.1081,-0.1093,-0.1108,-0.1139,-0.1154,-0.1166,-0.1176,-0.1185,-0.1182,-0.1181,-0.1192,-0.1193,-0.1193,-0.1197,-0.1198,-0.1183,-0.1183,-0.1183,0,-0.0937,-0.0962,-0.0978,-0.0995,-0.1007,-0.1021,-0.1036,-0.105,-0.1077,-0.1085,-0.1086,-0.1125,-0.1141,-0.1165,-0.1167,-0.1176,-0.1181,-0.1179,-0.1191,-0.1192,-0.1193,-0.1197,-0.1198,-0.1183,-0.1183,-0.1183,-0.1183,0,-0.0956,-0.0974,-0.0983,-0.1009,-0.1022,-0.1038,-0.1056,-0.1067,-0.1076,-0.109,-0.1111,-0.113,-0.1152,-0.1158,-0.1167,-0.1183,-0.1183,-0.1187,-0.119,-0.1193,-0.1197,-0.1199,-0.1182,-0.1182,-0.1182,-0.1182,0,0,-0.0957,-0.099,-0.0993,-0.1005,-0.103,-0.1044,-0.106,-0.1081,-0.1091,-0.1109,-0.1123,-0.1148,-0.1152,-0.1165,-0.1176,-0.1185,-0.1192,-0.1188,-0.1189,-0.1188,-0.1211,-0.1208,-0.1209,-0.1197,-0.1198,-0.1198,-0.1209,0,-0.0967,-0.0997,-0.1011,-0.1034,-0.105,-0.1063,-0.1077,-0.1094,-0.1106,-0.1121,-0.1135,-0.1153,-0.1157,-0.1164,-0.1174,-0.1189,-0.1197,-0.1189,-0.1211,-0.1211,-0.1205,-0.1211,-0.1208,-0.1218,-0.121,-0.1211,-0.1211,0,-0.0984,-0.1001,-0.1026,-0.1048,-0.1056,-0.1068,-0.1088,-0.1103,-0.1122,-0.113,-0.1144,-0.1154,-0.1172,-0.1172,-0.1196,-0.119,-0.1199,-0.1208,-0.1209,-0.1212,-0.1212,-0.1215,-0.1221,-0.1223,-0.1214,-0.1213,-0.1213,0,-0.0982,-0.1011,-0.103,-0.1039,-0.1066,-0.1074,-0.1086,-0.1105,-0.1116,-0.1134,-0.1141,-0.1161,-0.1171,-0.1186,-0.1201,-0.12,-0.1223,-0.1225,-0.1231,-0.1231,-0.1236,-0.1236,-0.1244,-0.1241,-0.1241,-0.1241,-0.1241,0,-0.0992,-0.1007,-0.1029,-0.1041,-0.1057,-0.1073,-0.1089,-0.1101,-0.1118,-0.1132,-0.1144,-0.1157,-0.1176,-0.1191,-0.1202,-0.122,-0.1225,-0.1232,-0.1235,-0.1232,-0.1231,-0.1239,-0.1239,-0.1242,-0.1242,-0.1242,-0.1242,0,-0.0993,-0.1009,-0.103,-0.1053,-0.1059,-0.107,-0.109,-0.1102,-0.1114,-0.1131,-0.1136,-0.1156,-0.1175,-0.1191,-0.1215,-0.1223,-0.1241,-0.1245,-0.1235,-0.1237,-0.1242,-0.1241,-0.1257,-0.1259,-0.1254,-0.1254,-0.1254,0,-0.0999,-0.1011,-0.1035,-0.1045,-0.1056,-0.1072,-0.1083,-0.1099,-0.1111,-0.1133,-0.1141,-0.116,-0.1177,-0.1205,-0.1222,-0.124,-0.1245,-0.1249,-0.1248,-0.1243,-0.1245,-0.1244,-0.1246,-0.1249,-0.1249,-0.1249,-0.1249,0,-0.1008,-0.1015,-0.1031,-0.105,-0.1063,-0.1078,-0.1094,-0.1102,-0.112,-0.1132,-0.1151,-0.1163,-0.1188,-0.1207,-0.1227,-0.1239,-0.1247,-0.1249,-0.1251,-0.1248,-0.1241,-0.1245,-0.1235,-0.1249,-0.1249,-0.1249,-0.1249,-0.1249,-0.1012,-0.1023,-0.1041,-0.1058,-0.1072,-0.1086,-0.1097,-0.1111,-0.1127,-0.1148,-0.1156,-0.1175,-0.1193,-0.122,-0.1232,-0.1247,-0.1249,-0.1252,-0.1253,-0.1254,-0.1253,-0.1238,-0.1251,-0.1251,-0.1251,-0.1251,-0.1251,0,-0.1022,-0.1034,-0.105,-0.1071,-0.1084,-0.109,-0.1107,-0.1118,-0.1135,-0.1151,-0.1166,-0.1187,-0.1205,-0.1222,-0.1241,-0.125,-0.1254,-0.1254,-0.1254,-0.1257,-0.1251,-0.1247,-0.1251,-0.1251,-0.1251,-0.1251,-0.1251,-0.1251,-0.1029,-0.1047,-0.1055,-0.108,-0.1092,-0.111,-0.1119,-0.1132,-0.1145,-0.1168,-0.1183,-0.1194,-0.121,-0.123,-0.1247,-0.1251,-0.1258,-0.1257,-0.1263,-0.1257,-0.1257,-0.1257,-0.1253,-0.1258,-0.1258,-0.1268,-0.1268,-0.1268]}]]